Manistique, MI

10:46 AM EST on December 13, 2017 (GMT -0500)
Schoolcraft County

Weather History for KISQ - October, 2012

Change the Weather History Date:

Saturday, October 13, 2012

  Actual Average Record
Temperature  
Mean Temperature 44 °F -  
Max Temperature 50 °F 53 °F 70 °F (1975)
Min Temperature 39 °F 36 °F 21 °F (1974)
Degree Days  
Heating Degree Days 20    
Moisture  
Dew Point 42 °F    
Average Humidity 85    
Maximum Humidity 94    
Minimum Humidity 66    
Precipitation  
Precipitation 0.00 in - - ()
Sea Level Pressure  
Sea Level Pressure 29.98 in    
Wind  
Wind Speed 7 mph (SSW)    
Max Wind Speed 20 mph    
Max Gust Speed 28 mph    
Visibility 8 miles    
Events Rain    
Averages and records for this station are not official NWS values.
T = Trace of Precipitation, MM = Missing Value Source: NWS Daily Summary

Daily Weather History Graph

Daily Weather History Graph

Search for Another Location

Airport or City:

Trip Planner

Search our weather history database for the weather conditions in past years. The results will help you decide how hot, cold, wet, or windy it might be!

Date:

Astronomy

Oct. 13, 2012 Rise Set
Actual Time 7:59 AM EDT 7:01 PM EDT
Civil Twilight 7:29 AM EDT 7:31 PM EDT
Nautical Twilight 6:54 AM EDT 8:05 PM EDT
Astronomical Twilight 6:20 AM EDT 8:40 PM EDT
Moon 5:43 AM EDT 5:47 PM EDT
Length of Visible Light 12h 01m
Length of Day
11h 01m
Waning Crescent, 5% of the Moon is Illuminated
Oct 13
Waning Crescent
Oct 15
New
Oct 21
First Quarter
Oct 29
Full
Nov 6
Last Quarter

Hourly Weather History & Observations

Time (EDT) Temp. Windchill Dew Point Humidity Pressure Visibility Wind Dir Wind Speed Gust Speed Precip Events Conditions
12:14 AM 44.6 °F 40.2 °F 33.8 °F 66% 30.27 in 10.0 mi SSW 8.1 mph - N/A   Clear
12:35 AM 44.6 °F 39.7 °F 35.6 °F 71% 30.25 in 10.0 mi SSW 9.2 mph - N/A   Clear
12:55 AM 44.6 °F 42.2 °F 35.6 °F 71% 30.25 in 10.0 mi SW 4.6 mph - N/A   Clear
1:14 AM 44.6 °F 41.4 °F 35.6 °F 71% 30.24 in 10.0 mi SSW 5.8 mph - N/A   Clear
1:55 AM 42.8 °F - 35.6 °F 76% 30.24 in 10.0 mi Calm Calm - N/A   Clear
2:35 AM 42.8 °F - 35.6 °F 76% 30.22 in 10.0 mi Calm Calm - N/A   Clear
2:55 AM 39.2 °F - 35.6 °F 87% 30.22 in 10.0 mi Calm Calm - N/A   Clear
3:15 AM 41.0 °F - 35.6 °F 81% 30.21 in 10.0 mi Calm Calm - N/A   Mostly Cloudy
3:35 AM 44.6 °F - 35.6 °F 71% 30.20 in 10.0 mi Calm Calm - N/A   Mostly Cloudy
3:54 AM 42.8 °F - 35.6 °F 76% 30.19 in 10.0 mi Calm Calm - N/A   Scattered Clouds
4:15 AM 42.8 °F - 35.6 °F 76% 30.18 in 10.0 mi Calm Calm - N/A   Clear
4:35 AM 44.6 °F 42.2 °F 35.6 °F 71% 30.17 in 10.0 mi SW 4.6 mph - N/A   Clear
4:54 AM 44.6 °F 42.2 °F 35.6 °F 71% 30.17 in 10.0 mi SSW 4.6 mph - N/A   Clear
5:15 AM 44.6 °F 41.4 °F 37.4 °F 76% 30.17 in 10.0 mi SW 5.8 mph - N/A   Scattered Clouds
5:35 AM 44.6 °F 41.4 °F 37.4 °F 76% 30.17 in 10.0 mi SSW 5.8 mph - N/A   Scattered Clouds
5:55 AM 44.6 °F 42.2 °F 37.4 °F 76% 30.16 in 10.0 mi SSW 4.6 mph - N/A   Scattered Clouds
6:15 AM 44.6 °F 41.4 °F 39.2 °F 81% 30.15 in 10.0 mi SSW 5.8 mph - N/A   Mostly Cloudy
6:34 AM 46.4 °F 41.1 °F 41.0 °F 81% 30.13 in 10.0 mi SSW 11.5 mph - N/A   Overcast
6:55 AM 48.2 °F - 39.2 °F 71% 30.13 in 10.0 mi South 12.7 mph 23.0 mph N/A   Scattered Clouds
7:15 AM 48.2 °F - 39.2 °F 71% 30.12 in 10.0 mi South 11.5 mph 18.4 mph N/A   Mostly Cloudy
7:34 AM 48.2 °F - 39.2 °F 71% 30.11 in 10.0 mi South 13.8 mph - N/A   Overcast
7:55 AM 48.2 °F - 41.0 °F 76% 30.11 in 10.0 mi South 12.7 mph 18.4 mph N/A   Overcast
8:15 AM 46.4 °F 41.5 °F 42.8 °F 87% 30.10 in 10.0 mi South 10.4 mph 18.4 mph N/A Rain Light Rain
8:35 AM 48.2 °F - 42.8 °F 82% 30.08 in 10.0 mi South 10.4 mph 18.4 mph N/A   Light Drizzle
8:55 AM 46.4 °F 39.8 °F 42.8 °F 87% 30.08 in 10.0 mi SSW 16.1 mph 23.0 mph N/A Rain Rain
9:14 AM 46.4 °F 39.8 °F 42.8 °F 87% 30.06 in 10.0 mi South 16.1 mph 20.7 mph N/A   Light Drizzle
9:55 AM 46.4 °F 39.0 °F 42.8 °F 87% 30.05 in 10.0 mi South 19.6 mph 27.6 mph N/A   Overcast
10:35 AM 46.4 °F 39.2 °F 42.8 °F 87% 30.02 in 10.0 mi SSE 18.4 mph 26.5 mph N/A   Drizzle
10:55 AM 46.4 °F 39.5 °F 42.8 °F 87% 30.00 in 10.0 mi SSE 17.3 mph 25.3 mph N/A   Light Drizzle
11:35 AM 46.4 °F 41.1 °F 42.8 °F 87% 29.97 in 5.0 mi SSE 11.5 mph 24.2 mph N/A   Light Drizzle
11:54 AM 46.4 °F 39.5 °F 42.8 °F 87% 29.96 in 5.0 mi SSE 17.3 mph 24.2 mph N/A Rain Rain
12:15 PM 46.4 °F 39.8 °F 42.8 °F 87% 29.96 in 5.0 mi SSE 16.1 mph 21.9 mph N/A Rain Light Rain
12:35 PM 46.4 °F 40.4 °F 44.6 °F 93% 29.95 in 5.0 mi SSE 13.8 mph 23.0 mph N/A   Drizzle
12:54 PM 46.4 °F 39.5 °F 42.8 °F 87% 29.94 in 2.5 mi SSE 17.3 mph 24.2 mph N/A   Heavy Drizzle
1:35 PM 46.4 °F 40.7 °F 44.6 °F 93% 29.90 in 7.0 mi SSE 12.7 mph 17.3 mph N/A   Drizzle
2:15 PM 48.2 °F - 46.4 °F 93% 29.87 in 7.0 mi South 9.2 mph - N/A   Drizzle
2:34 PM 48.2 °F - 46.4 °F 93% 29.85 in 5.0 mi South 12.7 mph - N/A   Heavy Drizzle
2:55 PM 48.2 °F - 46.4 °F 93% 29.83 in 5.0 mi South 10.4 mph 16.1 mph N/A   Drizzle
3:14 PM 48.2 °F - 46.4 °F 93% 29.82 in 3.0 mi South 10.4 mph - N/A Rain Rain
3:35 PM 48.2 °F - 46.4 °F 93% 29.81 in 5.0 mi South 8.1 mph - N/A Rain Heavy Rain
3:54 PM 50.0 °F - 46.4 °F 87% 29.79 in 10.0 mi South 9.2 mph - N/A   Drizzle
4:15 PM 50.0 °F - 48.2 °F 94% 29.79 in 10.0 mi SSW 6.9 mph - N/A   Drizzle
4:35 PM 50.0 °F - 46.4 °F 87% 29.77 in 10.0 mi SSW 8.1 mph - N/A Rain Rain
4:54 PM 50.0 °F - 46.4 °F 87% 29.78 in 10.0 mi SW 10.4 mph 17.3 mph N/A Rain Rain
5:15 PM 50.0 °F - 46.4 °F 87% 29.77 in 7.0 mi SW 10.4 mph 16.1 mph N/A Rain Light Rain
5:35 PM 48.2 °F - 46.4 °F 93% 29.76 in 7.0 mi SSW 9.2 mph 18.4 mph N/A Rain Rain
5:54 PM 48.2 °F - 46.4 °F 93% 29.75 in 10.0 mi SW 8.1 mph - N/A   Light Drizzle
6:15 PM 48.2 °F - 46.4 °F 93% 29.75 in 10.0 mi SSW 6.9 mph - N/A Rain Light Rain
6:54 PM 48.2 °F - 46.4 °F 93% 29.76 in 7.0 mi SSW 8.1 mph - N/A Rain Light Rain
7:15 PM 48.2 °F - 46.4 °F 93% 29.75 in 10.0 mi SSW 5.8 mph - N/A   Drizzle
7:34 PM 48.2 °F - 46.4 °F 93% 29.76 in 7.0 mi SSW 5.8 mph - N/A Rain Light Rain
7:55 PM 48.2 °F - 46.4 °F 93% 29.76 in 7.0 mi WSW 3.5 mph - N/A   Light Drizzle
8:34 PM 48.2 °F - 46.4 °F 93% 29.76 in 7.0 mi WSW 3.5 mph - N/A Rain Light Rain
8:55 PM 48.2 °F - 46.4 °F 93% 29.76 in 7.0 mi Calm Calm - N/A   Drizzle
9:34 PM 48.2 °F - 46.4 °F 93% 29.76 in 5.0 mi WSW 3.5 mph - N/A   Overcast
10:14 PM 48.2 °F - 46.4 °F 93% 29.77 in 7.0 mi West 3.5 mph - N/A   Overcast
10:35 PM 48.2 °F - 46.4 °F 93% 29.77 in 7.0 mi WNW 5.8 mph - N/A   Overcast
10:55 PM 48.2 °F - 46.4 °F 93% 29.77 in 5.0 mi WNW 5.8 mph - N/A   Drizzle
11:14 PM 48.2 °F - 46.4 °F 93% 29.76 in 7.0 mi NW 4.6 mph - N/A   Drizzle